Retour au catalogue

STARLINK-31699

ActifCommunicationsVLEO
NORAD 59551·PAYLOAD·🇺🇸 United States

Lancé Apr 18, 2024 depuis Cape Canaveral Space Force Station

Loading…

Prochains Passages (prochaines 24 heures)

TLE

FraisSource: CelesTrak SupGP

Époque: Sep 14, 2026, 21:56 UTC

1 59551C 24074T   26257.91437500 -.00008804  00000+0 -31887-3 0  2571
2 59551  43.0028 354.7587 0001723 274.8187 141.7520 15.27585552    19

Suivez STARLINK-31699 en temps réel avec AllMySat

Download on the App Store